• In Hungary
  • List of Countries
  • For 7 days
  • Water Temperature
  • Satellite Maps
  • Weather Map
  • News
  • Weather Widgets
  • user-avatar
    Login

    Hourly Weather Pucón

    Today, 18 December, Monday

    Time Temperature Precipitation Wind Pressure Humidity
    00:00 +9°C° 0 mm 1 mps 732 mmHg 78%
    01:00 +8°C° 0 mm 1 mps 732 mmHg 73%
    02:00 +8°C° 0 mm 1 mps 732 mmHg 72%
    03:00 +8°C° 0 mm 1 mps 732 mmHg 71%
    04:00 +8°C° 0 mm 1 mps 731 mmHg 70%
    05:00 +11°C° 0 mm 1 mps 732 mmHg 62%
    06:00 +12°C° 0 mm 0 mps 732 mmHg 54%
    07:00 +15°C° 0 mm 0 mps 732 mmHg 46%
    08:00 +19°C° 0 mm 1 mps 731 mmHg 40%
    09:00 +22°C° 0 mm 1 mps 731 mmHg 35%
    10:00 +24°C° 0 mm 1 mps 731 mmHg 30%
    11:00 +25°C° 0 mm 2 mps 731 mmHg 29%
    12:00 +25°C° 0 mm 2 mps 731 mmHg 28%
    13:00 +26°C° 0 mm 2 mps 731 mmHg 27%
    14:00 +26°C° 0 mm 2 mps 731 mmHg 29%
    15:00 +26°C° 0 mm 2 mps 731 mmHg 31%
    16:00 +26°C° 0 mm 2 mps 731 mmHg 33%
    17:00 +23°C° 0 mm 2 mps 731 mmHg 45%
    18:00 +20°C° 0 mm 1 mps 732 mmHg 57%
    19:00 +16°C° 0 mm 1 mps 732 mmHg 69%
    20:00 +15°C° 0 mm 1 mps 732 mmHg 76%
    21:00 +13°C° 0 mm 1 mps 733 mmHg 83%
    22:00 +10°C° 0 mm 0 mps 733 mmHg 90%
    23:00 +10°C° 0 mm 0 mps 733 mmHg 90%

    Tomorrow, 19 December, Tuesday

    Time Temperature Precipitation Wind Pressure Humidity
    00:00 +10°C° 0 mm 1 mps 733 mmHg 91%
    01:00 +10°C° 0 mm 1 mps 733 mmHg 91%
    02:00 +10°C° 0 mm 1 mps 733 mmHg 89%
    03:00 +10°C° 0 mm 1 mps 732 mmHg 87%
    04:00 +10°C° 0 mm 1 mps 732 mmHg 85%
    05:00 +12°C° 0 mm 0 mps 732 mmHg 73%
    06:00 +15°C° 0 mm 0 mps 732 mmHg 60%
    07:00 +18°C° 0 mm 0 mps 733 mmHg 48%
    08:00 +22°C° 0 mm 1 mps 732 mmHg 42%
    09:00 +24°C° 0 mm 1 mps 732 mmHg 36%
    10:00 +27°C° 0 mm 2 mps 732 mmHg 30%
    11:00 +27°C° 0 mm 2 mps 732 mmHg 29%
    12:00 +28°C° 0 mm 2 mps 731 mmHg 29%
    13:00 +28°C° 0 mm 2 mps 731 mmHg 29%
    14:00 +27°C° 0 mm 2 mps 731 mmHg 32%
    15:00 +27°C° 0 mm 2 mps 731 mmHg 35%
    16:00 +26°C° 0 mm 2 mps 731 mmHg 38%
    17:00 +24°C° 0 mm 2 mps 731 mmHg 50%
    18:00 +21°C° 0 mm 1 mps 731 mmHg 62%
    19:00 +19°C° 0 mm 1 mps 731 mmHg 74%
    20:00 +16°C° 0 mm 1 mps 731 mmHg 82%
    21:00 +14°C° 0 mm 1 mps 731 mmHg 89%
    22:00 +12°C° 0 mm 0 mps 731 mmHg 97%
    23:00 +12°C° 0 mm 1 mps 731 mmHg 97%

    Day after tomorrow, 20 December, Wednesday

    Time Temperature Precipitation Wind Pressure Humidity
    00:00 +12°C° 0 mm 1 mps 731 mmHg 97%
    01:00 +11°C° 0 mm 1 mps 730 mmHg 98%
    02:00 +11°C° 0 mm 1 mps 730 mmHg 97%
    03:00 +11°C° 0 mm 1 mps 730 mmHg 97%
    04:00 +11°C° 0 mm 1 mps 730 mmHg 96%
    05:00 +13°C° 0 mm 1 mps 730 mmHg 87%
    06:00 +15°C° 0 mm 1 mps 730 mmHg 78%
    07:00 +18°C° 0 mm 1 mps 730 mmHg 68%
    08:00 +18°C° 0.3 mm 2 mps 730 mmHg 70%
    09:00 +18°C° 0.3 mm 2 mps 729 mmHg 71%
    10:00 +19°C° 0.3 mm 2 mps 729 mmHg 72%
    11:00 +18°C° 0.8 mm 2 mps 730 mmHg 81%
    12:00 +16°C° 0.8 mm 2 mps 730 mmHg 89%
    13:00 +15°C° 0.8 mm 2 mps 730 mmHg 97%
    14:00 +16°C° 0.3 mm 2 mps 730 mmHg 95%
    15:00 +16°C° 0.3 mm 2 mps 730 mmHg 92%
    16:00 +17°C° 0.3 mm 2 mps 730 mmHg 89%
    17:00 +16°C° 0.1 mm 2 mps 730 mmHg 89%
    18:00 +15°C° 0.1 mm 2 mps 731 mmHg 88%
    19:00 +14°C° 0.1 mm 2 mps 731 mmHg 87%
    20:00 +13°C° 0 mm 2 mps 731 mmHg 90%
    21:00 +11°C° 0 mm 1 mps 732 mmHg 93%
    22:00 +9°C° 0 mm 1 mps 732 mmHg 96%
    23:00 +9°C° 0 mm 1 mps 732 mmHg 97%

    21 December, Thursday

    Time Temperature Precipitation Wind Pressure Humidity
    00:00 +8°C° 0 mm 1 mps 732 mmHg 97%
    01:00 +8°C° 0 mm 1 mps 732 mmHg 98%
    02:00 +7°C° 0 mm 1 mps 732 mmHg 98%
    03:00 +7°C° 0 mm 1 mps 732 mmHg 98%
    04:00 +7°C° 0 mm 1 mps 732 mmHg 98%
    05:00 +7°C° 0 mm 0 mps 732 mmHg 90%
    06:00 +9°C° 0 mm 0 mps 732 mmHg 82%
    07:00 +11°C° 0 mm 0 mps 733 mmHg 75%
    08:00 +14°C° 0 mm 1 mps 732 mmHg 62%
    09:00 +18°C° 0 mm 1 mps 732 mmHg 49%
    10:00 +19°C° 0 mm 2 mps 732 mmHg 37%
    11:00 +19°C° 0 mm 2 mps 731 mmHg 36%
    12:00 +20°C° 0 mm 3 mps 731 mmHg 36%
    13:00 +21°C° 0 mm 3 mps 731 mmHg 35%
    14:00 +20°C° 0 mm 3 mps 731 mmHg 39%
    15:00 +20°C° 0 mm 4 mps 731 mmHg 43%
    16:00 +19°C° 0 mm 4 mps 731 mmHg 47%
    17:00 +17°C° 0 mm 3 mps 731 mmHg 56%
    18:00 +14°C° 0 mm 3 mps 731 mmHg 65%
    19:00 +13°C° 0 mm 2 mps 732 mmHg 74%
    20:00 +12°C° 0 mm 2 mps 732 mmHg 81%
    21:00 +11°C° 0 mm 1 mps 732 mmHg 88%
    22:00 +9°C° 0 mm 1 mps 733 mmHg 96%
    23:00 +9°C° 0.1 mm 1 mps 733 mmHg 96%

    22 December, Friday

    Time Temperature Precipitation Wind Pressure Humidity
    00:00 +10°C° 0.1 mm 1 mps 732 mmHg 96%
    01:00 +10°C° 0.1 mm 1 mps 732 mmHg 96%
    02:00 +10°C° 0.1 mm 1 mps 732 mmHg 96%
    03:00 +10°C° 0.1 mm 1 mps 732 mmHg 96%
    04:00 +10°C° 0.1 mm 1 mps 733 mmHg 96%
    05:00 +10°C° 0.1 mm 1 mps 733 mmHg 95%
    06:00 +10°C° 0.1 mm 2 mps 733 mmHg 93%
    07:00 +10°C° 0.1 mm 2 mps 733 mmHg 92%
    08:00 +12°C° 0.1 mm 2 mps 733 mmHg 83%
    09:00 +13°C° 0.1 mm 2 mps 733 mmHg 74%
    10:00 +14°C° 0.1 mm 2 mps 733 mmHg 65%
    11:00 +16°C° 0 mm 2 mps 733 mmHg 58%
    12:00 +17°C° 0 mm 3 mps 733 mmHg 52%
    13:00 +18°C° 0 mm 3 mps 733 mmHg 45%
    14:00 +18°C° 0 mm 3 mps 733 mmHg 45%
    15:00 +18°C° 0 mm 3 mps 733 mmHg 45%
    16:00 +18°C° 0 mm 3 mps 733 mmHg 45%
    17:00 +16°C° 0 mm 2 mps 734 mmHg 53%
    18:00 +14°C° 0 mm 2 mps 734 mmHg 61%
    19:00 +13°C° 0 mm 1 mps 734 mmHg 69%
    20:00 +11°C° 0 mm 1 mps 735 mmHg 76%
    21:00 +9°C° 0 mm 1 mps 735 mmHg 83%
    22:00 +7°C° 0 mm 1 mps 736 mmHg 90%
    23:00 +7°C° 0 mm 1 mps 735 mmHg 91%

    23 December, Saturday

    Time Temperature Precipitation Wind Pressure Humidity
    00:00 +6°C° 0 mm 1 mps 735 mmHg 92%
    01:00 +6°C° 0 mm 1 mps 735 mmHg 94%
    02:00 +6°C° 0 mm 1 mps 735 mmHg 93%
    03:00 +5°C° 0 mm 1 mps 735 mmHg 92%
    04:00 +5°C° 0 mm 1 mps 735 mmHg 92%
    05:00 +8°C° 0 mm 1 mps 734 mmHg 78%
    06:00 +11°C° 0 mm 1 mps 734 mmHg 64%
    07:00 +14°C° 0 mm 1 mps 734 mmHg 50%
    08:00 +16°C° 0 mm 1 mps 734 mmHg 44%
    09:00 +19°C° 0 mm 1 mps 733 mmHg 38%
    10:00 +20°C° 0 mm 2 mps 733 mmHg 31%
    11:00 +21°C° 0 mm 2 mps 733 mmHg 30%
    12:00 +23°C° 0 mm 2 mps 732 mmHg 29%
    13:00 +24°C° 0 mm 3 mps 732 mmHg 28%
    14:00 +22°C° 0 mm 3 mps 732 mmHg 30%
    15:00 +22°C° 0 mm 3 mps 732 mmHg 31%
    16:00 +22°C° 0 mm 3 mps 731 mmHg 33%
    17:00 +20°C° 0 mm 2 mps 732 mmHg 43%
    18:00 +17°C° 0 mm 2 mps 732 mmHg 54%
    19:00 +15°C° 0 mm 1 mps 732 mmHg 65%
    20:00 +13°C° 0 mm 1 mps 733 mmHg 73%
    21:00 +11°C° 0 mm 1 mps 733 mmHg 82%
    22:00 +8°C° 0 mm 0 mps 733 mmHg 90%
    23:00 +8°C° 0 mm 0 mps 733 mmHg 91%
    Show more